TimeEST,TemperatureF,Dew PointF,Humidity,Sea Level PressureIn,VisibilityMPH,Wind Direction,Wind SpeedMPH,Gust SpeedMPH,PrecipitationIn,Events,Conditions,WindDirDegrees,DateUTC
12:09 AM,32.0,30.2,93,29.52,1.8,NNW,3.5,-,0.00,Snow,Light Snow,340,2013-02-20 05:09:00
12:32 AM,32.0,30.2,93,29.50,1.5,WNW,3.5,-,0.01,Snow,Light Snow,290,2013-02-20 05:32:00
12:48 AM,32.0,30.2,93,29.49,2.0,NW,3.5,-,0.02,Snow,Light Snow,310,2013-02-20 05:48:00
12:52 AM,32.0,30.0,92,29.52,2.0,Calm,Calm,-,0.02,Snow,Light Snow,0,2013-02-20 05:52:00
1:04 AM,32.0,30.2,93,29.48,3.0,Calm,Calm,-,0.00,Snow,Light Snow,0,2013-02-20 06:04:00
1:11 AM,32.0,30.2,93,29.48,2.5,Calm,Calm,-,0.00,Snow,Light Snow,0,2013-02-20 06:11:00
1:23 AM,32.0,30.2,93,29.48,1.5,Calm,Calm,-,0.01,Snow,Light Snow,0,2013-02-20 06:23:00
1:30 AM,32.0,30.2,93,29.48,1.2,Calm,Calm,-,0.01,Snow,Light Snow,0,2013-02-20 06:30:00
1:47 AM,32.0,30.2,93,29.46,1.0,Calm,Calm,-,0.03,Snow,Light Snow,0,2013-02-20 06:47:00
1:52 AM,32.0,30.0,92,29.49,1.0,Calm,Calm,-,0.03,Snow,Light Snow,0,2013-02-20 06:52:00
1:59 AM,32.0,30.2,93,29.46,1.5,Calm,Calm,-,0.01,Snow,Light Snow,0,2013-02-20 06:59:00
2:17 AM,32.0,30.2,93,29.44,2.0,Calm,Calm,-,0.01,Snow,Light Snow,0,2013-02-20 07:17:00
2:40 AM,32.0,30.2,93,29.43,1.8,Calm,Calm,-,0.02,Snow,Light Snow,0,2013-02-20 07:40:00
2:52 AM,32.0,30.0,92,29.47,1.5,Calm,Calm,-,0.03,Snow,Light Snow,0,2013-02-20 07:52:00
3:05 AM,32.0,30.2,93,29.44,1.0,Calm,Calm,-,0.03,Snow,Light Snow,0,2013-02-20 08:05:00
3:13 AM,33.8,30.2,87,29.44,0.8,NW,8.1,-,0.05,Snow,Light Snow,320,2013-02-20 08:13:00
3:52 AM,30.0,27.0,88,29.49,0.8,NW,5.8,17.3,0.08,Snow,Light Snow,310,2013-02-20 08:52:00
4:09 AM,30.2,28.4,93,29.46,1.0,Variable,3.5,-,0.02,Snow,Light Snow,0,2013-02-20 09:09:00
4:17 AM,30.2,26.6,86,29.47,1.2,Calm,Calm,-,0.03,Snow,Light Snow,0,2013-02-20 09:17:00
4:27 AM,30.2,26.6,86,29.47,0.8,Variable,5.8,-,0.03,Snow,Light Snow,0,2013-02-20 09:27:00
4:52 AM,28.0,24.1,85,29.52,0.8,West,8.1,21.9,0.04,Snow,Light Snow,280,2013-02-20 09:52:00
5:03 AM,28.4,23.0,80,29.48,1.2,WNW,8.1,19.6,0.00,Snow,Light Snow,290,2013-02-20 10:03:00
5:12 AM,28.4,23.0,80,29.48,1.5,WNW,9.2,19.6,0.00,Snow,Light Snow,300,2013-02-20 10:12:00
5:21 AM,28.4,23.0,80,29.48,1.2,Variable,4.6,-,0.00,Snow,Light Snow,0,2013-02-20 10:21:00
5:42 AM,26.6,23.0,86,29.48,1.0,Variable,5.8,-,0.01,Snow,Light Snow,0,2013-02-20 10:42:00
5:52 AM,27.0,23.0,85,29.52,1.2,Variable,5.8,-,0.01,Snow,Light Snow,0,2013-02-20 10:52:00
5:58 AM,26.6,23.0,86,29.48,1.5,Variable,3.5,-,0.01,Snow,Light Snow,0,2013-02-20 10:58:00
6:21 AM,26.6,23.0,86,29.48,2.5,NW,8.1,-,0.01,Snow,Light Snow,310,2013-02-20 11:21:00
6:36 AM,26.6,21.2,80,29.48,1.5,WNW,5.8,16.1,0.01,Snow,Light Snow,290,2013-02-20 11:36:00
6:47 AM,26.6,21.2,80,29.49,0.8,WNW,6.9,-,0.01,Snow,Light Snow,290,2013-02-20 11:47:00
6:52 AM,27.0,21.9,81,29.53,0.8,Variable,6.9,-,0.01,Snow,Light Snow,0,2013-02-20 11:52:00
7:04 AM,26.6,21.2,80,29.49,1.5,Variable,5.8,-,0.00,Snow,Light Snow,0,2013-02-20 12:04:00
7:52 AM,26.1,19.9,78,29.54,1.8,West,9.2,-,0.00,Snow,Light Snow,280,2013-02-20 12:52:00
8:00 AM,26.6,19.4,74,29.50,2.0,West,5.8,-,0.00,Snow,Light Snow,280,2013-02-20 13:00:00
8:10 AM,26.6,19.4,74,29.50,3.0,Variable,4.6,-,0.00,Snow,Light Snow,0,2013-02-20 13:10:00
8:17 AM,26.6,19.4,74,29.50,5.0,Variable,4.6,-,0.00,Snow,Light Snow,0,2013-02-20 13:17:00
8:38 AM,26.6,19.4,74,29.50,7.0,West,8.1,18.4,0.00,Snow,Light Snow,270,2013-02-20 13:38:00
8:52 AM,27.0,19.0,72,29.55,10.0,Calm,Calm,-,0.00,,Overcast,0,2013-02-20 13:52:00
9:52 AM,27.0,18.0,69,29.55,10.0,WNW,8.1,-,N/A,,Overcast,290,2013-02-20 14:52:00
10:52 AM,28.0,18.0,66,29.54,10.0,Variable,3.5,-,0.00,,Overcast,0,2013-02-20 15:52:00
11:52 AM,27.0,17.1,66,29.54,10.0,West,10.4,17.3,N/A,,Overcast,280,2013-02-20 16:52:00
12:52 PM,27.0,15.1,61,29.54,10.0,WNW,10.4,21.9,N/A,,Overcast,290,2013-02-20 17:52:00
1:52 PM,27.0,15.1,61,29.53,10.0,West,8.1,-,N/A,,Overcast,270,2013-02-20 18:52:00
2:52 PM,26.1,14.0,60,29.55,10.0,NW,8.1,17.3,N/A,,Overcast,310,2013-02-20 19:52:00
3:52 PM,25.0,12.9,60,29.56,10.0,West,8.1,16.1,N/A,,Overcast,280,2013-02-20 20:52:00
4:52 PM,24.1,16.0,71,29.57,5.0,Variable,3.5,-,0.00,Snow,Light Snow,0,2013-02-20 21:52:00
5:10 PM,24.8,15.8,69,29.53,4.0,WNW,9.2,-,0.00,Snow,Light Snow,290,2013-02-20 22:10:00
6:09 PM,23.0,15.8,74,29.55,8.0,WNW,8.1,20.7,0.00,Snow,Light Snow,300,2013-02-20 23:09:00
6:52 PM,23.0,14.0,68,29.61,10.0,WNW,9.2,18.4,0.00,,Overcast,290,2013-02-20 23:52:00
7:31 PM,23.0,14.0,68,29.55,9.0,West,8.1,-,0.00,Snow,Light Snow,280,2013-02-21 00:31:00
7:52 PM,23.0,14.0,68,29.61,9.0,NNW,6.9,-,0.00,Snow,Light Snow,330,2013-02-21 00:52:00
8:52 PM,21.9,14.0,72,29.62,7.0,WNW,8.1,-,0.00,Snow,Light Snow,290,2013-02-21 01:52:00
9:25 PM,21.2,12.2,68,29.58,10.0,Variable,4.6,-,0.00,,Overcast,0,2013-02-21 02:25:00
10:14 PM,21.2,12.2,68,29.58,10.0,WNW,10.4,16.1,0.00,,Overcast,290,2013-02-21 03:14:00
10:52 PM,21.9,12.9,68,29.63,9.0,WNW,8.1,17.3,0.00,Snow,Light Snow,290,2013-02-21 03:52:00
11:52 PM,21.0,14.0,74,29.65,2.5,Variable,5.8,-,0.00,Snow,Light Snow,0,2013-02-21 04:52:00